KLM877 EHAM-VABB

Flight info

Callsign KLM877
Flight time N/A
Altitude 33000
Route ARNEM L620 PIKIB T620 LALUK DCT LABUK DCT PITOK DCT EBILO DCT LAPKA DCT DINRO/N0476F350 N743 UDROS UM859 KARDE UN644 ROLIN N644 LAGAS M747 SULEL N449 DUKAN B449 RANAH/N0486F370 L750 RIKAD/N0491F320 M375 PAROD/N0491F310 V390 SERKA/N0487F370 B466 NH N893 TELEM Z10 LAXOM W74 HSR W144 IPNIB R458 BOFIN POKON2A
Aircraft B772/H-SDE2E3FGHIJ5LORVWXY/LB1D1

Departure

Time 2026-04-27 09:47
Airport Amsterdam Airport Schiphol (EHAM)

Arrival

Time N/A
Airport Chhatrapati Shivaji Maharaj International Airport (VABB)
Time Latitude Longitude Altitude Speed Heading
2026-04-27 09:06 52.31014 4.77020 19 ft 0 kts 179°
2026-04-27 09:27 52.31019 4.77020 18 ft 2 kts 179°
2026-04-27 09:28 52.31038 4.77019 18 ft 3 kts 179°
2026-04-27 09:28 52.31053 4.77018 18 ft 3 kts 186°
2026-04-27 09:28 52.31068 4.77023 18 ft 3 kts 218°
2026-04-27 09:28 52.31078 4.77039 18 ft 3 kts 255°
2026-04-27 09:29 52.31080 4.77070 18 ft 3 kts 271°
2026-04-27 09:29 52.31080 4.77096 18 ft 1 kts 273°
2026-04-27 09:29 52.31079 4.77103 18 ft 0 kts 273°
2026-04-27 09:32 52.31080 4.77085 18 ft 5 kts 273°
2026-04-27 09:32 52.31086 4.76994 18 ft 11 kts 291°
2026-04-27 09:32 52.31146 4.76946 18 ft 11 kts 18°
2026-04-27 09:33 52.31209 4.77005 18 ft 10 kts 33°
2026-04-27 09:33 52.31268 4.77068 18 ft 9 kts 34°
2026-04-27 09:33 52.31293 4.77095 18 ft 4 kts 34°
2026-04-27 09:33 52.31315 4.77120 18 ft 4 kts 34°
2026-04-27 09:34 52.31337 4.77143 18 ft 4 kts 34°
2026-04-27 09:34 52.31357 4.77165 18 ft 3 kts 32°
2026-04-27 09:34 52.31389 4.77186 18 ft 8 kts 13°
2026-04-27 09:34 52.31465 4.77196 18 ft 14 kts
2026-04-27 09:35 52.31550 4.77190 18 ft 10 kts 327°
2026-04-27 09:35 52.31567 4.77075 18 ft 13 kts 267°
2026-04-27 09:35 52.31561 4.76905 18 ft 17 kts 266°
2026-04-27 09:35 52.31555 4.76709 18 ft 17 kts 266°
2026-04-27 09:36 52.31548 4.76511 18 ft 18 kts 266°
2026-04-27 09:36 52.31540 4.76298 18 ft 18 kts 267°
2026-04-27 09:36 52.31533 4.76095 18 ft 17 kts 266°
2026-04-27 09:36 52.31526 4.75900 18 ft 17 kts 266°
2026-04-27 09:37 52.31519 4.75684 18 ft 21 kts 267°
2026-04-27 09:37 52.31511 4.75441 18 ft 22 kts 267°
2026-04-27 09:37 52.31503 4.75196 18 ft 21 kts 267°
2026-04-27 09:37 52.31495 4.74962 18 ft 20 kts 267°
2026-04-27 09:38 52.31487 4.74741 18 ft 19 kts 266°
2026-04-27 09:38 52.31480 4.74528 18 ft 18 kts 267°
2026-04-27 09:38 52.31476 4.74351 18 ft 11 kts 282°
2026-04-27 09:38 52.31539 4.74296 18 ft 11 kts 359°
2026-04-27 09:39 52.31625 4.74304 18 ft 13 kts
2026-04-27 09:39 52.31720 4.74313 18 ft 14 kts
2026-04-27 09:39 52.31822 4.74322 18 ft 15 kts
2026-04-27 09:39 52.31928 4.74332 18 ft 16 kts
2026-04-27 09:40 52.32014 4.74306 18 ft 12 kts 308°
2026-04-27 09:40 52.32032 4.74163 18 ft 14 kts 273°
2026-04-27 09:40 52.32038 4.73995 18 ft 16 kts 273°
2026-04-27 09:40 52.32045 4.73807 18 ft 17 kts 273°
2026-04-27 09:41 52.32052 4.73606 18 ft 18 kts 273°
2026-04-27 09:41 52.32064 4.73424 18 ft 15 kts 290°
2026-04-27 09:41 52.32134 4.73290 18 ft 16 kts 319°
2026-04-27 09:41 52.32222 4.73166 18 ft 17 kts 319°
2026-04-27 09:42 52.32314 4.73036 18 ft 18 kts 319°
2026-04-27 09:42 52.32410 4.72902 18 ft 19 kts 319°
2026-04-27 09:42 52.32509 4.72762 18 ft 19 kts 319°
2026-04-27 09:42 52.32610 4.72619 18 ft 19 kts 319°
2026-04-27 09:43 52.32707 4.72466 18 ft 20 kts 311°
2026-04-27 09:43 52.32796 4.72302 18 ft 19 kts 311°
2026-04-27 09:43 52.32881 4.72145 18 ft 18 kts 311°
2026-04-27 09:43 52.32960 4.71997 18 ft 17 kts 311°
2026-04-27 09:44 52.33037 4.71856 18 ft 17 kts 311°
2026-04-27 09:44 52.33117 4.71709 18 ft 17 kts 311°
2026-04-27 09:44 52.33147 4.71552 18 ft 15 kts 255°
2026-04-27 09:44 52.33084 4.71427 18 ft 14 kts 221°
2026-04-27 09:45 52.33011 4.71323 18 ft 13 kts 221°
2026-04-27 09:45 52.32943 4.71226 18 ft 13 kts 221°
2026-04-27 09:45 52.32875 4.71124 18 ft 13 kts 233°
2026-04-27 09:45 52.32863 4.70976 18 ft 14 kts 273°
2026-04-27 09:46 52.32880 4.70897 18 ft 6 kts 336°
2026-04-27 09:46 52.32943 4.70896 18 ft 16 kts
2026-04-27 09:46 52.33195 4.70920 18 ft 66 kts
2026-04-27 09:46 52.33868 4.70981 18 ft 126 kts
2026-04-27 09:47 52.34921 4.71080 21 ft 176 kts
2026-04-27 09:47 52.36193 4.71206 525 ft 182 kts
2026-04-27 09:47 52.37462 4.71323 1276 ft 185 kts
2026-04-27 09:47 52.38768 4.71425 1700 ft 198 kts
2026-04-27 09:48 52.40208 4.71528 1894 ft 217 kts
2026-04-27 09:48 52.41764 4.71904 2061 ft 235 kts 15°
2026-04-27 09:48 52.43320 4.72837 2350 ft 248 kts 24°
2026-04-27 09:48 52.44870 4.74119 2880 ft 252 kts 28°
2026-04-27 09:49 52.46365 4.75622 3406 ft 254 kts 39°
2026-04-27 09:49 52.47435 4.77911 3902 ft 256 kts 65°
2026-04-27 09:49 52.47917 4.80743 4428 ft 259 kts 76°
2026-04-27 09:49 52.48291 4.83658 4930 ft 263 kts 80°
2026-04-27 09:50 52.48501 4.86659 5482 ft 266 kts 87°
2026-04-27 09:50 52.48125 4.89633 5938 ft 272 kts 114°
2026-04-27 09:50 52.46994 4.92073 6472 ft 275 kts 133°
2026-04-27 09:50 52.45549 4.94152 6963 ft 279 kts 138°
2026-04-27 09:51 52.44041 4.96184 7447 ft 282 kts 140°
2026-04-27 09:51 52.42491 4.98164 7962 ft 284 kts 142°
2026-04-27 09:51 52.40911 5.00122 8452 ft 287 kts 142°
2026-04-27 09:51 52.39308 5.02086 8941 ft 289 kts 143°
2026-04-27 09:52 52.37687 5.04068 9423 ft 291 kts 143°
2026-04-27 09:52 52.36058 5.06059 9889 ft 294 kts 143°
2026-04-27 09:52 52.34527 5.08279 10316 ft 297 kts 131°
2026-04-27 09:52 52.33355 5.11028 10621 ft 306 kts 120°
2026-04-27 09:53 52.32359 5.14197 10740 ft 321 kts 116°
2026-04-27 09:53 52.31428 5.17613 10857 ft 337 kts 113°
2026-04-27 09:53 52.30530 5.21254 10990 ft 353 kts 111°
2026-04-27 09:53 52.29632 5.25069 11195 ft 367 kts 111°
2026-04-27 09:54 52.28700 5.29015 11557 ft 376 kts 111°
2026-04-27 09:54 52.27744 5.33024 12029 ft 382 kts 112°
2026-04-27 09:54 52.26769 5.37085 12582 ft 386 kts 112°
2026-04-27 09:54 52.25782 5.41172 13126 ft 390 kts 112°
2026-04-27 09:55 52.24790 5.45268 13634 ft 394 kts 112°
2026-04-27 09:55 52.23851 5.49139 14076 ft 398 kts 112°
2026-04-27 09:55 52.21792 5.57603 15170 ft 405 kts 112°
2026-04-27 09:56 52.20776 5.61920 15679 ft 409 kts 111°
2026-04-27 09:56 52.19781 5.66303 16160 ft 413 kts 111°
2026-04-27 09:56 52.18751 5.70690 16680 ft 416 kts 112°
2026-04-27 09:56 52.17683 5.75092 17148 ft 420 kts 112°
2026-04-27 09:57 52.16585 5.79540 17609 ft 424 kts 112°
2026-04-27 09:57 52.15495 5.83939 18055 ft 428 kts 112°
2026-04-27 09:57 52.14379 5.88443 18536 ft 430 kts 112°